TimeEDT,TemperatureF,Dew PointF,Humidity,Sea Level PressureIn,VisibilityMPH,Wind Direction,Wind SpeedMPH,Gust SpeedMPH,PrecipitationIn,Events,Conditions,WindDirDegrees,DateUTC
12:51 AM,54.0,37.9,55,29.84,10.0,WNW,6.9,-,N/A,,Clear,290,2012-10-21 04:51:00
1:51 AM,52.0,37.9,59,29.85,10.0,West,6.9,-,N/A,,Clear,270,2012-10-21 05:51:00
2:51 AM,52.0,39.0,61,29.87,10.0,West,10.4,-,N/A,,Clear,260,2012-10-21 06:51:00
3:51 AM,51.1,39.0,63,29.87,10.0,WNW,8.1,-,N/A,,Clear,290,2012-10-21 07:51:00
4:51 AM,51.1,39.0,63,29.88,10.0,WNW,5.8,-,N/A,,Clear,290,2012-10-21 08:51:00
5:51 AM,50.0,39.0,66,29.90,10.0,Calm,Calm,-,N/A,,Clear,0,2012-10-21 09:51:00
6:51 AM,48.0,39.0,71,29.93,10.0,Calm,Calm,-,N/A,,Clear,0,2012-10-21 10:51:00
7:51 AM,48.0,39.9,74,29.95,10.0,South,4.6,-,N/A,,Clear,170,2012-10-21 11:51:00
8:51 AM,51.1,42.1,71,29.96,10.0,SSW,5.8,-,N/A,,Clear,200,2012-10-21 12:51:00
9:51 AM,55.9,41.0,57,29.98,10.0,West,9.2,-,N/A,,Clear,280,2012-10-21 13:51:00
10:51 AM,59.0,41.0,51,29.98,10.0,WNW,8.1,16.1,N/A,,Clear,290,2012-10-21 14:51:00
11:51 AM,62.1,39.9,44,29.96,10.0,WNW,15.0,-,N/A,,Clear,300,2012-10-21 15:51:00
12:51 PM,64.9,39.0,39,29.95,10.0,NNW,11.5,18.4,N/A,,Clear,330,2012-10-21 16:51:00
1:51 PM,66.9,37.9,34,29.93,10.0,NW,17.3,-,N/A,,Partly Cloudy,310,2012-10-21 17:51:00
2:51 PM,63.0,36.0,37,29.93,10.0,NW,11.5,-,N/A,,Clear,320,2012-10-21 18:51:00
3:51 PM,64.9,34.0,32,29.94,10.0,WNW,15.0,21.9,N/A,,Partly Cloudy,300,2012-10-21 19:51:00
4:51 PM,64.0,35.1,34,29.94,10.0,NW,10.4,-,N/A,,Mostly Cloudy,320,2012-10-21 20:51:00
5:51 PM,63.0,34.0,34,29.95,10.0,WNW,12.7,16.1,N/A,,Clear,290,2012-10-21 21:51:00
6:51 PM,60.1,35.1,39,29.97,10.0,WNW,4.6,-,N/A,,Clear,300,2012-10-21 22:51:00
7:51 PM,55.9,37.0,49,29.98,10.0,SW,4.6,-,N/A,,Clear,230,2012-10-21 23:51:00
8:51 PM,57.0,37.0,47,30.00,10.0,West,3.5,-,N/A,,Clear,270,2012-10-22 00:51:00
9:51 PM,55.9,37.0,49,30.01,10.0,WSW,6.9,-,N/A,,Clear,250,2012-10-22 01:51:00
10:51 PM,55.0,37.9,53,30.02,10.0,SW,6.9,-,N/A,,Clear,230,2012-10-22 02:51:00
11:51 PM,55.0,39.0,55,30.02,10.0,West,10.4,-,N/A,,Clear,270,2012-10-22 03:51:00